Scottsboro, AL

7:58 AM CDT on August 23, 2017 (GMT -0500)
Scottsboro

Weather History for K4A6 - December, 2013

Change the Weather History Date:

Thursday, December 26, 2013

  Actual Average (KHSV) Record (KHSV)
Temperature  
Mean Temperature 36 °F -  
Max Temperature 48 °F 48 °F 73 °F (2016)
Min Temperature 24 °F 29 °F 4 °F (1983)
Degree Days  
Heating Degree Days 29    
Moisture  
Dew Point 28 °F    
Average Humidity 79    
Maximum Humidity 100    
Minimum Humidity 46    
Precipitation  
Precipitation 0.00 in - - ()
Sea Level Pressure  
Sea Level Pressure 30.36 in    
Wind  
Wind Speed 1 mph (SE)    
Max Wind Speed 6 mph    
Max Gust Speed -    
Visibility 10 miles    
Events      
Averages and records for this station are not official NWS values.
T = Trace of Precipitation, MM = Missing Value Source: NWS Daily Summary

Daily Weather History Graph

Daily Weather History Graph

Search for Another Location

Airport or City:

Trip Planner

Search our weather history database for the weather conditions in past years. The results will help you decide how hot, cold, wet, or windy it might be!

Date:

Astronomy

Dec. 26, 2013 Rise Set
Actual Time 6:49 AM CST 4:40 PM CST
Civil Twilight 6:21 AM CST 5:08 PM CST
Nautical Twilight 5:50 AM CST 5:39 PM CST
Astronomical Twilight 5:19 AM CST 6:10 PM CST
Moon 12:28 AM CST (12/26) 12:05 PM CST (12/26)
Length of Visible Light 10h 46m
Length of Day
9h 50m
Last Quarter, 38% of the Moon is Illuminated
Dec 26
Last Quarter
Jan 1
New
Jan 7
First Quarter
Jan 15
Full
Jan 23
Last Quarter

Hourly Weather History & Observations

Time (CST) Temp. Windchill Dew Point Humidity Pressure Visibility Wind Dir Wind Speed Gust Speed Precip Events Conditions
12:15 AM 26.6 °F - 24.8 °F 93% 30.35 in 10.0 mi Calm Calm - N/A   Clear
12:35 AM 26.6 °F - 24.8 °F 93% 30.35 in 10.0 mi Calm Calm - N/A   Clear
12:55 AM 26.6 °F - 24.8 °F 93% 30.35 in 10.0 mi Calm Calm - N/A   Clear
1:15 AM 26.6 °F - 24.8 °F 93% 30.35 in 10.0 mi Calm Calm - N/A   Clear
1:35 AM 26.6 °F - 26.6 °F 100% 30.35 in 10.0 mi Calm Calm - N/A   Clear
1:55 AM 28.4 °F - 24.8 °F 86% 30.35 in 10.0 mi Calm Calm - N/A   Clear
2:15 AM 26.6 °F - 24.8 °F 93% 30.35 in 10.0 mi Calm Calm - N/A   Clear
2:35 AM 26.6 °F - 24.8 °F 93% 30.36 in 10.0 mi Calm Calm - N/A   Clear
2:55 AM 26.6 °F - 24.8 °F 93% 30.36 in 10.0 mi Calm Calm - N/A   Clear
3:15 AM 26.6 °F - 24.8 °F 93% 30.36 in 10.0 mi Calm Calm - N/A   Partly Cloudy
3:35 AM 26.6 °F - 24.8 °F 93% 30.36 in 10.0 mi Calm Calm - N/A   Scattered Clouds
3:55 AM 26.6 °F - 24.8 °F 93% 30.36 in 10.0 mi Calm Calm - N/A   Scattered Clouds
4:15 AM 26.6 °F - 24.8 °F 93% 30.35 in 10.0 mi Calm Calm - N/A   Mostly Cloudy
4:35 AM 24.8 °F - 24.8 °F 100% 30.36 in 10.0 mi Calm Calm - N/A   Scattered Clouds
4:55 AM 24.8 °F - 24.8 °F 100% 30.36 in 10.0 mi Calm Calm - N/A   Clear
5:15 AM 24.8 °F - 24.8 °F 100% 30.36 in 10.0 mi Calm Calm - N/A   Clear
5:35 AM 24.8 °F - 24.8 °F 100% 30.37 in 10.0 mi Calm Calm - N/A   Clear
5:55 AM 24.8 °F - 23.0 °F 93% 30.37 in 10.0 mi Calm Calm - N/A   Clear
6:15 AM 24.8 °F - 23.0 °F 93% 30.37 in 10.0 mi Calm Calm - N/A   Clear
6:35 AM 24.8 °F - 23.0 °F 93% 30.38 in 10.0 mi Calm Calm - N/A   Clear
6:55 AM 24.8 °F - 23.0 °F 93% 30.39 in 10.0 mi Calm Calm - N/A   Clear
7:15 AM 24.8 °F - 23.0 °F 93% 30.39 in 10.0 mi Calm Calm - N/A   Clear
7:35 AM 24.8 °F - 23.0 °F 93% 30.40 in 10.0 mi Calm Calm - N/A   Clear
7:55 AM 26.6 °F - 24.8 °F 93% 30.40 in 10.0 mi Calm Calm - N/A   Clear
8:15 AM 28.4 °F - 26.6 °F 93% 30.40 in 10.0 mi Calm Calm - N/A   Clear
8:35 AM 32.0 °F - 26.6 °F 80% 30.41 in 10.0 mi Calm Calm - N/A   Clear
8:55 AM 33.8 °F - 28.4 °F 81% 30.41 in 10.0 mi Calm Calm - N/A   Clear
9:15 AM 35.6 °F - 30.2 °F 81% 30.41 in 10.0 mi Calm Calm - N/A   Clear
9:35 AM 37.4 °F - 28.4 °F 70% 30.42 in 10.0 mi Calm Calm - N/A   Clear
9:55 AM 39.2 °F - 30.2 °F 70% 30.41 in 10.0 mi Calm Calm - N/A   Clear
10:15 AM 41.0 °F - 30.2 °F 65% 30.41 in 10.0 mi Calm Calm - N/A   Clear
10:35 AM 41.0 °F 39.0 °F 28.4 °F 61% 30.40 in 10.0 mi ESE 3.5 mph - N/A   Clear
10:55 AM 44.6 °F 41.4 °F 28.4 °F 53% 30.40 in 10.0 mi NE 5.8 mph - N/A   Clear
11:15 AM 44.6 °F 41.4 °F 28.4 °F 53% 30.39 in 10.0 mi NNE 5.8 mph - N/A   Clear
11:35 AM 44.6 °F - 28.4 °F 53% 30.38 in 10.0 mi Calm Calm - N/A   Clear
11:55 AM 44.6 °F - 28.4 °F 53% 30.37 in 10.0 mi Calm Calm - N/A   Clear
12:15 PM 46.4 °F 44.3 °F 30.2 °F 53% 30.36 in 10.0 mi East 4.6 mph - N/A   Clear
12:35 PM 46.4 °F - 30.2 °F 53% 30.35 in 10.0 mi Calm Calm - N/A   Clear
12:55 PM 46.4 °F 45.2 °F 30.2 °F 53% 30.34 in 10.0 mi ENE 3.5 mph - N/A   Clear
1:15 PM 48.2 °F - 30.2 °F 50% 30.33 in 10.0 mi Calm Calm - N/A   Clear
1:35 PM 48.2 °F - 28.4 °F 46% 30.32 in 10.0 mi Calm Calm - N/A   Clear
1:55 PM 48.2 °F - 28.4 °F 46% 30.32 in 10.0 mi WSW 4.6 mph - N/A   Clear
2:15 PM 48.2 °F - 28.4 °F 46% 30.32 in 10.0 mi Calm Calm - N/A   Clear
2:35 PM 48.2 °F - 30.2 °F 50% 30.32 in 10.0 mi South 5.8 mph - N/A   Clear
2:55 PM 48.2 °F - 30.2 °F 50% 30.32 in 10.0 mi South 4.6 mph - N/A   Clear
3:15 PM 48.2 °F - 30.2 °F 50% 30.32 in 10.0 mi SSE 4.6 mph - N/A   Clear
3:35 PM 48.2 °F - 30.2 °F 50% 30.32 in 10.0 mi South 3.5 mph - N/A   Clear
3:55 PM 48.2 °F - 30.2 °F 50% 30.32 in 10.0 mi South 4.6 mph - N/A   Clear
4:15 PM 48.2 °F - 30.2 °F 50% 30.32 in 10.0 mi South 4.6 mph - N/A   Clear
4:35 PM 46.4 °F - 32.0 °F 57% 30.33 in 10.0 mi Calm Calm - N/A   Clear
4:55 PM 41.0 °F - 32.0 °F 70% 30.34 in 10.0 mi Calm Calm - N/A   Clear
5:15 PM 41.0 °F - 32.0 °F 70% 30.34 in 10.0 mi Calm Calm - N/A   Clear
5:35 PM 39.2 °F - 32.0 °F 75% 30.34 in 10.0 mi Calm Calm - N/A   Clear
5:55 PM 37.4 °F - 32.0 °F 81% 30.34 in 10.0 mi Calm Calm - N/A   Partly Cloudy
6:15 PM 37.4 °F - 32.0 °F 81% 30.35 in 10.0 mi Calm Calm - N/A   Partly Cloudy
6:35 PM 35.6 °F - 30.2 °F 81% 30.36 in 10.0 mi Calm Calm - N/A   Partly Cloudy
6:55 PM 35.6 °F - 30.2 °F 81% 30.36 in 10.0 mi Calm Calm - N/A   Partly Cloudy
7:15 PM 33.8 °F - 30.2 °F 87% 30.37 in 10.0 mi Calm Calm - N/A   Partly Cloudy
7:35 PM 33.8 °F - 30.2 °F 87% 30.37 in 10.0 mi Calm Calm - N/A   Clear
7:55 PM 32.0 °F - 28.4 °F 87% 30.38 in 10.0 mi Calm Calm - N/A   Scattered Clouds
8:15 PM 32.0 °F - 28.4 °F 87% 30.38 in 10.0 mi Calm Calm - N/A   Partly Cloudy
8:35 PM 32.0 °F - 28.4 °F 87% 30.38 in 10.0 mi Calm Calm - N/A   Clear
8:55 PM 30.2 °F - 26.6 °F 86% 30.38 in 10.0 mi Calm Calm - N/A   Clear
9:15 PM 30.2 °F - 28.4 °F 93% 30.38 in 10.0 mi Calm Calm - N/A   Clear
9:35 PM 30.2 °F - 26.6 °F 86% 30.37 in 10.0 mi Calm Calm - N/A   Partly Cloudy
9:55 PM 30.2 °F - 26.6 °F 86% 30.38 in 10.0 mi Calm Calm - N/A   Clear
10:15 PM 28.4 °F - 26.6 °F 93% 30.38 in 10.0 mi Calm Calm - N/A   Clear
10:35 PM 28.4 °F - 26.6 °F 93% 30.38 in 10.0 mi Calm Calm - N/A   Clear
10:55 PM 28.4 °F - 26.6 °F 93% 30.37 in 10.0 mi Calm Calm - N/A   Clear
11:15 PM 28.4 °F - 26.6 °F 93% 30.37 in 10.0 mi Calm Calm - N/A   Clear
11:35 PM 28.4 °F - 26.6 °F 93% 30.38 in 10.0 mi Calm Calm - N/A   Clear
11:55 PM 28.4 °F - 26.6 °F 93% 30.38 in 10.0 mi Calm Calm - N/A   Clear